JSA791 WSSS-ROAH

Flight info

Callsign JSA791
Flight time N/A
Altitude 35000
Route TOMAN3A TOMAN L625 AKMON/K0843F360 L625 ANOKI/N0450F360 L625 MEVIN/N0442F370 B462 MJC Y57 VELNO
Aircraft A320/M-SDE3FGHIRWY/LB1

Departure

Time 2026-05-03 22:04
Airport Singapore Changi Airport (WSSS)

Arrival

Time N/A
Airport Naha International Airport (ROAH)
Time Latitude Longitude Altitude Speed Heading
2026-05-03 21:20 1.33732 103.98444 31 ft 0 kts 292°
2026-05-03 21:54 1.33729 103.98452 30 ft 4 kts 288°
2026-05-03 21:55 1.33725 103.98478 30 ft 4 kts 256°
2026-05-03 21:55 1.33737 103.98498 30 ft 4 kts 208°
2026-05-03 21:55 1.33741 103.98501 30 ft 0 kts 203°
2026-05-03 21:59 1.33740 103.98500 30 ft 1 kts 203°
2026-05-03 21:59 1.33731 103.98496 30 ft 2 kts 203°
2026-05-03 21:59 1.33708 103.98487 30 ft 5 kts 203°
2026-05-03 22:00 1.33671 103.98479 30 ft 6 kts 167°
2026-05-03 22:00 1.33647 103.98514 30 ft 7 kts 112°
2026-05-03 22:00 1.33627 103.98563 30 ft 8 kts 112°
2026-05-03 22:00 1.33588 103.98600 30 ft 9 kts 182°
2026-05-03 22:01 1.33514 103.98571 30 ft 17 kts 202°
2026-05-03 22:01 1.33388 103.98518 30 ft 21 kts 203°
2026-05-03 22:01 1.33250 103.98460 30 ft 22 kts 202°
2026-05-03 22:01 1.33119 103.98404 30 ft 17 kts 203°
2026-05-03 22:02 1.33011 103.98359 30 ft 14 kts 202°
2026-05-03 22:02 1.32949 103.98357 30 ft 9 kts 135°
2026-05-03 22:02 1.32924 103.98417 30 ft 10 kts 111°
2026-05-03 22:02 1.32896 103.98483 30 ft 9 kts 113°
2026-05-03 22:03 1.32932 103.98520 30 ft 10 kts 24°
2026-05-03 22:03 1.33144 103.98610 30 ft 66 kts 23°
2026-05-03 22:03 1.33753 103.98866 30 ft 122 kts 23°
2026-05-03 22:03 1.34681 103.99257 31 ft 165 kts 23°
2026-05-03 22:04 1.35796 103.99736 324 ft 179 kts 23°
2026-05-03 22:04 1.36939 104.00217 956 ft 178 kts 22°
2026-05-03 22:04 1.37695 104.00534 1369 ft 178 kts 22°
2026-05-03 22:04 1.39223 104.01178 1940 ft 189 kts 23°
2026-05-03 22:05 1.40057 104.01530 2038 ft 203 kts 23°
2026-05-03 22:05 1.41429 104.02109 2148 ft 226 kts 22°
2026-05-03 22:05 1.42955 104.02754 2368 ft 249 kts 22°
2026-05-03 22:05 1.44612 104.03455 2783 ft 265 kts 23°
2026-05-03 22:06 1.46322 104.04180 3524 ft 268 kts 22°
2026-05-03 22:06 1.47908 104.05157 4237 ft 272 kts 48°
2026-05-03 22:06 1.48751 104.06829 4893 ft 276 kts 82°
2026-05-03 22:06 1.48555 104.08732 5559 ft 281 kts 110°
2026-05-03 22:07 1.47666 104.10474 6257 ft 283 kts 120°
2026-05-03 22:07 1.46687 104.12192 6939 ft 286 kts 120°
2026-05-03 22:07 1.45696 104.13924 7587 ft 289 kts 120°
2026-05-03 22:07 1.44695 104.15677 8223 ft 292 kts 120°
2026-05-03 22:08 1.43686 104.17447 8832 ft 294 kts 119°
2026-05-03 22:08 1.42725 104.19267 9419 ft 298 kts 116°
2026-05-03 22:08 1.41836 104.21144 10004 ft 300 kts 114°
2026-05-03 22:08 1.40948 104.23103 10192 ft 319 kts 114°
2026-05-03 22:09 1.40018 104.25184 10324 ft 337 kts 114°
2026-05-03 22:09 1.39043 104.27362 10606 ft 348 kts 114°
2026-05-03 22:09 1.38039 104.29583 11100 ft 352 kts 114°
2026-05-03 22:10 1.35978 104.34065 12185 ft 357 kts 115°
2026-05-03 22:10 1.34931 104.36323 12728 ft 359 kts 115°
2026-05-03 22:10 1.33896 104.38603 13263 ft 362 kts 111°
2026-05-03 22:10 1.33219 104.41029 13771 ft 364 kts 99°
2026-05-03 22:11 1.33057 104.43561 14281 ft 367 kts 88°
2026-05-03 22:11 1.33124 104.46081 14762 ft 369 kts 88°
2026-05-03 22:11 1.33193 104.48649 15255 ft 371 kts 88°
2026-05-03 22:11 1.33260 104.51237 15740 ft 373 kts 88°
2026-05-03 22:12 1.33325 104.53838 16215 ft 376 kts 88°
2026-05-03 22:12 1.33390 104.56453 16677 ft 378 kts 89°
2026-05-03 22:12 1.33451 104.59087 17128 ft 380 kts 89°
2026-05-03 22:12 1.33510 104.61733 17577 ft 382 kts 89°
2026-05-03 22:13 1.33570 104.64397 18025 ft 385 kts 89°
2026-05-03 22:13 1.33632 104.67078 18471 ft 387 kts 89°
2026-05-03 22:13 1.33698 104.69773 18901 ft 390 kts 89°
2026-05-03 22:13 1.33765 104.72491 19317 ft 392 kts 89°
2026-05-03 22:14 1.33832 104.75227 19733 ft 395 kts 89°
2026-05-03 22:14 1.33900 104.77982 20141 ft 398 kts 89°
2026-05-03 22:14 1.33967 104.80752 20543 ft 401 kts 89°
2026-05-03 22:14 1.34033 104.83546 20938 ft 404 kts 89°
2026-05-03 22:15 1.34098 104.86360 21320 ft 407 kts 89°
2026-05-03 22:15 1.34164 104.89194 21700 ft 409 kts 89°
2026-05-03 22:15 1.34231 104.92042 22064 ft 411 kts 89°
2026-05-03 22:15 1.34300 104.94906 22409 ft 414 kts 89°
2026-05-03 22:16 1.34369 104.97790 22732 ft 416 kts 89°
2026-05-03 22:16 1.34439 105.00691 23053 ft 419 kts 89°
2026-05-03 22:16 1.34510 105.03606 23364 ft 421 kts 89°
2026-05-03 22:16 1.34582 105.06537 23669 ft 423 kts 89°
2026-05-03 22:17 1.34653 105.09480 23969 ft 425 kts 89°
2026-05-03 22:17 1.34726 105.12442 24255 ft 427 kts 89°
2026-05-03 22:17 1.34798 105.15414 24538 ft 429 kts 89°
2026-05-03 22:17 1.34868 105.18399 24816 ft 431 kts 89°
2026-05-03 22:18 1.34937 105.21395 25086 ft 433 kts 89°
2026-05-03 22:18 1.35009 105.24409 25346 ft 434 kts 89°
2026-05-03 22:18 1.35083 105.27429 25618 ft 436 kts 89°
2026-05-03 22:18 1.35157 105.30462 25878 ft 437 kts 89°
2026-05-03 22:19 1.35229 105.33507 26134 ft 439 kts 89°
2026-05-03 22:19 1.35300 105.36561 26385 ft 440 kts 89°
2026-05-03 22:19 1.35374 105.39630 26636 ft 442 kts 89°
2026-05-03 22:19 1.35450 105.42705 26878 ft 443 kts 89°
2026-05-03 22:20 1.35525 105.45790 27101 ft 445 kts 89°
2026-05-03 22:20 1.35599 105.48884 27319 ft 447 kts 89°
2026-05-03 22:20 1.35670 105.51951 27535 ft 448 kts 89°
2026-05-03 22:20 1.35741 105.55068 27754 ft 450 kts 89°
2026-05-03 22:21 1.35813 105.58197 27979 ft 451 kts 89°
2026-05-03 22:21 1.35887 105.61333 28200 ft 452 kts 89°
2026-05-03 22:21 1.35958 105.64479 28442 ft 453 kts 89°
2026-05-03 22:21 1.36029 105.67624 28764 ft 452 kts 89°
2026-05-03 22:22 1.36118 105.70759 29087 ft 451 kts 86°
2026-05-03 22:22 1.36640 105.73844 29389 ft 451 kts 73°
2026-05-03 22:22 1.37815 105.76741 29688 ft 451 kts 61°
2026-05-03 22:22 1.39590 105.79316 29983 ft 451 kts 49°
2026-05-03 22:23 1.41876 105.81455 30276 ft 451 kts 37°
2026-05-03 22:23 1.44552 105.83086 30564 ft 451 kts 28°
2026-05-03 22:23 1.47335 105.84537 30857 ft 451 kts 28°
2026-05-03 22:23 1.50123 105.85978 31163 ft 451 kts 28°
2026-05-03 22:24 1.52911 105.87412 31470 ft 450 kts 28°
2026-05-03 22:24 1.55692 105.88841 31781 ft 450 kts 28°
2026-05-03 22:24 1.58471 105.90277 32091 ft 449 kts 28°
2026-05-03 22:24 1.61242 105.91710 32396 ft 448 kts 28°
2026-05-03 22:25 1.64014 105.93144 32694 ft 448 kts 28°
2026-05-03 22:25 1.66774 105.94574 32982 ft 447 kts 28°
2026-05-03 22:25 1.69534 105.96006 33265 ft 446 kts 28°
2026-05-03 22:25 1.72289 105.97434 33526 ft 446 kts 28°
2026-05-03 22:26 1.75045 105.98860 33786 ft 445 kts 28°
2026-05-03 22:26 1.77794 106.00284 34032 ft 445 kts 28°
2026-05-03 22:26 1.80506 106.01688 34277 ft 445 kts 28°
2026-05-03 22:26 1.83251 106.03108 34526 ft 444 kts 28°
2026-05-03 22:27 1.85991 106.04524 34765 ft 443 kts 28°
2026-05-03 22:27 1.88730 106.05939 34880 ft 444 kts 28°
2026-05-03 22:27 1.91487 106.07369 34901 ft 449 kts 28°
2026-05-03 22:28 1.97041 106.10251 34897 ft 453 kts 28°
2026-05-03 22:28 2.02649 106.13147 34897 ft 454 kts 28°
2026-05-03 22:29 2.08260 106.16043 34897 ft 454 kts 28°
2026-05-03 22:29 2.13872 106.18942 34898 ft 454 kts 28°
2026-05-03 22:30 2.19481 106.21850 34901 ft 454 kts 28°
2026-05-03 22:30 2.25093 106.24758 34904 ft 455 kts 28°
2026-05-03 22:31 2.30674 106.27644 34906 ft 455 kts 28°
2026-05-03 22:31 2.36296 106.30552 34908 ft 455 kts 28°
2026-05-03 22:32 2.41913 106.33461 34908 ft 455 kts 28°
2026-05-03 22:32 2.47534 106.36370 34909 ft 455 kts 28°
2026-05-03 22:33 2.53156 106.39273 34907 ft 455 kts 28°
2026-05-03 22:33 2.58771 106.42185 34904 ft 454 kts 28°
2026-05-03 22:34 2.64380 106.45102 34901 ft 454 kts 28°
2026-05-03 22:34 2.69991 106.48010 34897 ft 454 kts 28°
2026-05-03 22:35 2.75603 106.50910 34897 ft 454 kts 28°
2026-05-03 22:35 2.81224 106.53808 34900 ft 455 kts 28°
2026-05-03 22:36 2.86843 106.56716 34899 ft 455 kts 28°
2026-05-03 22:36 2.92460 106.59630 34901 ft 455 kts 28°
2026-05-03 22:37 2.98084 106.62544 34903 ft 455 kts 28°
2026-05-03 22:37 3.03714 106.65451 34905 ft 455 kts 28°
2026-05-03 22:38 3.09307 106.68347 34905 ft 455 kts 28°
2026-05-03 22:38 3.14934 106.71265 34906 ft 455 kts 28°
2026-05-03 22:39 3.20558 106.74178 34904 ft 455 kts 28°
2026-05-03 22:39 3.26182 106.77092 34905 ft 455 kts 28°
2026-05-03 22:40 3.31814 106.80006 34906 ft 456 kts 28°
2026-05-03 22:40 3.37438 106.82920 34906 ft 455 kts 28°
2026-05-03 22:41 3.43063 106.85827 34903 ft 455 kts 28°
2026-05-03 22:41 3.48689 106.88731 34902 ft 455 kts 28°
2026-05-03 22:42 3.54303 106.91652 34902 ft 455 kts 28°
2026-05-03 22:42 3.59610 106.95057 34899 ft 453 kts 36°
2026-05-03 22:43 3.64765 106.98698 34898 ft 454 kts 36°
2026-05-03 22:43 3.69885 107.02313 34898 ft 453 kts 36°
2026-05-03 22:44 3.75037 107.05958 34896 ft 453 kts 36°
2026-05-03 22:44 3.80189 107.09592 34893 ft 453 kts 36°
2026-05-03 22:45 3.85340 107.13224 34893 ft 453 kts 36°
2026-05-03 22:45 3.90490 107.16864 34893 ft 453 kts 36°
2026-05-03 22:46 3.95642 107.20504 34896 ft 453 kts 36°
2026-05-03 22:46 4.00795 107.24148 34898 ft 454 kts 36°
2026-05-03 22:47 4.05954 107.27791 34900 ft 454 kts 36°
2026-05-03 22:47 4.11110 107.31432 34903 ft 454 kts 36°
2026-05-03 22:48 4.16267 107.35080 34903 ft 454 kts 36°
2026-05-03 22:48 4.21420 107.38725 34904 ft 454 kts 36°
2026-05-03 22:49 4.26580 107.42369 34905 ft 454 kts 36°
2026-05-03 22:49 4.31735 107.46016 34906 ft 454 kts 36°
2026-05-03 22:50 4.36894 107.49669 34910 ft 454 kts 36°
2026-05-03 22:50 4.42052 107.53327 34909 ft 454 kts 36°
2026-05-03 22:51 4.47206 107.56978 34907 ft 453 kts 36°
2026-05-03 22:51 4.52360 107.60618 34904 ft 453 kts 36°
2026-05-03 22:52 4.57509 107.64263 34903 ft 453 kts 36°
2026-05-03 22:52 4.62624 107.67882 34896 ft 453 kts 36°
2026-05-03 22:53 4.67771 107.71528 34895 ft 453 kts 36°
2026-05-03 22:53 4.72916 107.75179 34894 ft 453 kts 36°
2026-05-03 22:54 4.78064 107.78829 34895 ft 453 kts 36°
2026-05-03 22:54 4.83213 107.82481 34895 ft 453 kts 36°
2026-05-03 22:55 4.88366 107.86131 34894 ft 453 kts 36°
2026-05-03 22:55 4.93520 107.89775 34895 ft 453 kts 36°
2026-05-03 22:56 4.97804 107.92807 34894 ft 453 kts 36°
2026-05-03 22:56 5.02954 107.96444 34895 ft 453 kts 35°
2026-05-03 22:57 5.08115 108.00071 34895 ft 453 kts 35°
2026-05-03 22:57 5.13275 108.03689 34897 ft 453 kts 35°
2026-05-03 22:58 5.18437 108.07314 34897 ft 453 kts 35°
2026-05-03 22:58 5.23598 108.10943 34899 ft 453 kts 35°
2026-05-03 22:59 5.28764 108.14571 34901 ft 453 kts 35°
2026-05-03 22:59 5.33926 108.18209 34902 ft 453 kts 36°
2026-05-03 23:00 5.39090 108.21844 34903 ft 454 kts 35°
2026-05-03 23:00 5.44259 108.25478 34906 ft 454 kts 35°
2026-05-03 23:01 5.49427 108.29114 34914 ft 454 kts 35°
2026-05-03 23:01 5.54593 108.32756 34915 ft 453 kts 35°
2026-05-03 23:02 5.59755 108.36388 34915 ft 453 kts 35°
2026-05-03 23:02 5.64916 108.40020 34912 ft 453 kts 35°
2026-05-03 23:03 5.70073 108.43646 34912 ft 453 kts 35°
2026-05-03 23:03 5.75231 108.47279 34915 ft 453 kts 36°
2026-05-03 23:04 5.80391 108.50921 34918 ft 453 kts 36°
2026-05-03 23:04 5.85551 108.54560 34920 ft 453 kts 35°
2026-05-03 23:05 5.90711 108.58198 34922 ft 453 kts 35°
2026-05-03 23:05 5.95841 108.61806 34918 ft 453 kts 35°
2026-05-03 23:06 6.01000 108.65444 34919 ft 453 kts 36°
2026-05-03 23:06 6.06153 108.69079 34918 ft 453 kts 35°
2026-05-03 23:07 6.11309 108.72706 34916 ft 453 kts 36°
2026-05-03 23:07 6.16463 108.76346 34917 ft 453 kts 36°
2026-05-03 23:08 6.21617 108.79990 34918 ft 453 kts 36°
2026-05-03 23:08 6.26779 108.83637 34920 ft 454 kts 36°
2026-05-03 23:09 6.31941 108.87278 34920 ft 454 kts 36°
2026-05-03 23:09 6.37111 108.90924 34923 ft 454 kts 36°
2026-05-03 23:10 6.42260 108.94569 34924 ft 454 kts 36°
2026-05-03 23:10 6.47431 108.98220 34921 ft 453 kts 36°
2026-05-03 23:11 6.52589 109.01874 34921 ft 453 kts 36°
2026-05-03 23:11 6.57716 109.05502 34920 ft 453 kts 36°
2026-05-03 23:12 6.62906 109.09173 34918 ft 453 kts 36°
2026-05-03 23:12 6.68033 109.12795 34919 ft 454 kts 36°
2026-05-03 23:13 6.73196 109.16444 34918 ft 454 kts 36°
2026-05-03 23:13 6.78362 109.20095 34917 ft 453 kts 36°
2026-05-03 23:14 6.83519 109.23749 34918 ft 453 kts 36°
2026-05-03 23:14 6.88675 109.27410 34913 ft 453 kts 36°
2026-05-03 23:15 6.93837 109.31064 34909 ft 454 kts 36°
2026-05-03 23:15 6.98999 109.34721 34907 ft 454 kts 36°
2026-05-03 23:16 7.04158 109.38378 34908 ft 454 kts 36°
2026-05-03 23:16 7.09323 109.42036 34914 ft 454 kts 36°
2026-05-03 23:17 7.14482 109.45691 34921 ft 454 kts 36°
2026-05-03 23:17 7.19603 109.49331 34923 ft 453 kts 36°
2026-05-03 23:18 7.24756 109.52993 34924 ft 453 kts 36°
2026-05-03 23:18 7.29912 109.56649 34925 ft 453 kts 36°
2026-05-03 23:19 7.35066 109.60308 34926 ft 453 kts 36°
2026-05-03 23:19 7.40219 109.63964 34930 ft 453 kts 36°
2026-05-03 23:20 7.45361 109.67620 34924 ft 452 kts 36°
2026-05-03 23:20 7.50498 109.71273 34921 ft 452 kts 36°
2026-05-03 23:21 7.55640 109.74921 34920 ft 452 kts 36°
2026-05-03 23:21 7.60788 109.78575 34923 ft 452 kts 36°
2026-05-03 23:22 7.68495 109.84069 34929 ft 452 kts 36°
2026-05-03 23:22 7.73639 109.87728 34931 ft 452 kts 36°
2026-05-03 23:23 7.78743 109.91356 34934 ft 452 kts 36°
2026-05-03 23:23 7.83886 109.95013 34941 ft 452 kts 36°
2026-05-03 23:24 7.89020 109.98675 34938 ft 452 kts 36°
2026-05-03 23:24 7.94153 110.02334 34939 ft 452 kts 36°
2026-05-03 23:25 7.99281 110.05993 34940 ft 451 kts 36°
2026-05-03 23:25 8.04418 110.09648 34941 ft 451 kts 36°
2026-05-03 23:26 8.09547 110.13299 34942 ft 452 kts 36°
2026-05-03 23:26 8.14677 110.16961 34940 ft 451 kts 36°
2026-05-03 23:27 8.19799 110.20618 34934 ft 451 kts 36°
2026-05-03 23:27 8.24920 110.24285 34933 ft 451 kts 36°
2026-05-03 23:28 8.29989 110.27942 34935 ft 451 kts 36°
2026-05-03 23:28 8.35095 110.31625 34933 ft 451 kts 36°
2026-05-03 23:29 8.40209 110.35302 34937 ft 451 kts 36°
2026-05-03 23:29 8.45323 110.38989 34939 ft 451 kts 36°
2026-05-03 23:30 8.50434 110.42676 34936 ft 452 kts 36°
2026-05-03 23:30 8.55543 110.46368 34942 ft 451 kts 36°
2026-05-03 23:31 8.60652 110.50053 34938 ft 451 kts 36°
2026-05-03 23:31 8.65758 110.53734 34942 ft 451 kts 36°
2026-05-03 23:32 8.70869 110.57415 34939 ft 451 kts 36°
2026-05-03 23:32 8.75981 110.61106 34941 ft 451 kts 36°
2026-05-03 23:33 8.81084 110.64800 34942 ft 451 kts 36°
2026-05-03 23:33 8.86195 110.68497 34939 ft 452 kts 36°
2026-05-03 23:34 8.91307 110.72194 34940 ft 451 kts 36°
2026-05-03 23:34 8.96379 110.75865 34945 ft 451 kts 36°
2026-05-03 23:35 9.01482 110.79557 34941 ft 451 kts 36°
2026-05-03 23:35 9.06587 110.83254 34944 ft 451 kts 36°
2026-05-03 23:36 9.11686 110.86952 34938 ft 451 kts 36°
2026-05-03 23:36 9.16787 110.90641 34941 ft 450 kts 36°
2026-05-03 23:37 9.21879 110.94328 34932 ft 450 kts 36°
2026-05-03 23:37 9.26972 110.98025 34935 ft 450 kts 36°
2026-05-03 23:38 9.32068 111.01718 34933 ft 450 kts 36°
2026-05-03 23:38 9.37168 111.05415 34935 ft 451 kts 36°
2026-05-03 23:39 9.42230 111.09085 34943 ft 451 kts 36°
2026-05-03 23:39 9.47319 111.12785 34933 ft 450 kts 36°
2026-05-03 23:40 9.52409 111.16478 34938 ft 450 kts 36°
2026-05-03 23:40 9.57506 111.20174 34941 ft 451 kts 36°
2026-05-03 23:41 9.62603 111.23878 34943 ft 451 kts 36°
2026-05-03 23:41 9.67698 111.27583 34945 ft 451 kts 36°
2026-05-03 23:42 9.72790 111.31289 34948 ft 451 kts 36°
2026-05-03 23:42 9.77882 111.34998 34947 ft 451 kts 36°
2026-05-03 23:43 9.82973 111.38703 34945 ft 451 kts 36°
2026-05-03 23:43 9.88072 111.42406 34948 ft 451 kts 36°
2026-05-03 23:44 9.93167 111.46117 34950 ft 451 kts 36°
2026-05-03 23:44 9.98261 111.49834 34945 ft 451 kts 36°
2026-05-03 23:45 10.03322 111.53526 34945 ft 451 kts 36°
2026-05-03 23:45 10.08417 111.57243 34948 ft 451 kts 36°
2026-05-03 23:46 10.13516 111.60965 34946 ft 451 kts 36°
2026-05-03 23:46 10.18612 111.64688 34948 ft 451 kts 36°
2026-05-03 23:47 10.23710 111.68409 34953 ft 451 kts 36°
2026-05-03 23:47 10.28809 111.72133 34952 ft 451 kts 36°
2026-05-03 23:48 10.33907 111.75854 34955 ft 451 kts 36°
2026-05-03 23:48 10.39006 111.79579 34949 ft 451 kts 36°
2026-05-03 23:49 10.43243 111.82682 34953 ft 452 kts 36°
2026-05-03 23:49 10.48340 111.86416 34955 ft 452 kts 36°
2026-05-03 23:50 10.53441 111.90143 34951 ft 452 kts 36°
2026-05-03 23:50 10.59369 111.94471 34951 ft 452 kts 36°
2026-05-03 23:51 10.63638 111.97603 34954 ft 451 kts 36°
2026-05-03 23:51 10.68695 112.01314 34955 ft 452 kts 36°
2026-05-03 23:52 10.73829 112.05081 34956 ft 452 kts 36°
2026-05-03 23:52 10.78893 112.08801 34951 ft 452 kts 36°
2026-05-03 23:53 10.83996 112.12540 34954 ft 452 kts 36°
2026-05-03 23:53 10.89092 112.16284 34954 ft 452 kts 36°
2026-05-03 23:54 10.94194 112.20032 34950 ft 452 kts 36°
2026-05-03 23:54 10.99302 112.23773 34953 ft 452 kts 36°
2026-05-03 23:55 11.04412 112.27512 34950 ft 452 kts 36°
2026-05-03 23:55 11.09526 112.31241 34944 ft 452 kts 35°
2026-05-03 23:56 11.14634 112.34978 34946 ft 452 kts 36°
2026-05-03 23:56 11.19738 112.38720 34954 ft 452 kts 35°
2026-05-03 23:57 11.24848 112.42464 34953 ft 452 kts 35°
2026-05-03 23:57 11.29957 112.46204 34955 ft 452 kts 35°
2026-05-03 23:58 11.35029 112.49920 34958 ft 452 kts 35°
2026-05-03 23:58 11.40135 112.53663 34958 ft 452 kts 35°
2026-05-03 23:59 11.45235 112.57417 34957 ft 453 kts 35°
2026-05-03 23:59 11.50343 112.61167 34957 ft 452 kts 35°
2026-05-04 00:00 11.55441 112.64919 34956 ft 452 kts 35°
2026-05-04 00:00 11.60529 112.68676 34949 ft 451 kts 35°
2026-05-04 00:01 11.65616 112.72432 34951 ft 452 kts 35°
2026-05-04 00:01 11.70714 112.76190 34952 ft 452 kts 35°
2026-05-04 00:02 11.75816 112.79950 34957 ft 452 kts 35°
2026-05-04 00:02 11.80919 112.83715 34964 ft 452 kts 35°
2026-05-04 00:03 11.86014 112.87484 34964 ft 452 kts 36°
2026-05-04 00:03 11.91076 112.91227 34964 ft 452 kts 35°
2026-05-04 00:04 11.96171 112.94988 34963 ft 452 kts 35°
2026-05-04 00:04 12.01262 112.98752 34963 ft 452 kts 35°
2026-05-04 00:05 12.06345 113.02524 34960 ft 452 kts 35°
2026-05-04 00:05 12.11434 113.06297 34959 ft 452 kts 35°
2026-05-04 00:06 12.16529 113.10062 34962 ft 452 kts 36°
2026-05-04 00:06 12.21621 113.13832 34971 ft 452 kts 36°
2026-05-04 00:07 12.26707 113.17607 34975 ft 452 kts 36°
2026-05-04 00:07 12.31798 113.21387 34978 ft 452 kts 36°
2026-05-04 00:08 12.36894 113.25167 34981 ft 453 kts 36°
2026-05-04 00:08 12.41992 113.28944 34983 ft 452 kts 36°
2026-05-04 00:09 12.47092 113.32721 34982 ft 452 kts 36°
2026-05-04 00:09 12.52148 113.36470 34981 ft 452 kts 36°
2026-05-04 00:10 12.57238 113.40250 34980 ft 452 kts 36°
2026-05-04 00:10 12.62326 113.44029 34981 ft 452 kts 36°
2026-05-04 00:11 12.67421 113.47817 34979 ft 452 kts 36°
2026-05-04 00:11 12.72516 113.51607 34981 ft 453 kts 36°
2026-05-04 00:12 12.77610 113.55401 34982 ft 453 kts 36°
2026-05-04 00:12 12.82716 113.59190 34989 ft 453 kts 36°
2026-05-04 00:13 12.87823 113.62985 34995 ft 453 kts 36°
2026-05-04 00:13 12.92925 113.66789 34996 ft 453 kts 36°
2026-05-04 00:14 12.98018 113.70595 34982 ft 453 kts 36°
2026-05-04 00:14 13.03107 113.74390 34980 ft 452 kts 36°
2026-05-04 00:15 13.08201 113.78182 34978 ft 452 kts 36°
2026-05-04 00:15 13.13293 113.81984 34977 ft 453 kts 36°
2026-05-04 00:16 13.18384 113.85787 34979 ft 453 kts 36°
2026-05-04 00:16 13.23485 113.89588 34979 ft 453 kts 36°
2026-05-04 00:17 13.28541 113.93372 34979 ft 453 kts 36°
2026-05-04 00:17 13.33636 113.97189 34979 ft 453 kts 36°
2026-05-04 00:18 13.38727 114.01000 34978 ft 453 kts 36°
2026-05-04 00:18 13.43822 114.04808 34975 ft 453 kts 36°
2026-05-04 00:19 13.48912 114.08614 34972 ft 453 kts 36°
2026-05-04 00:19 13.54003 114.12433 34973 ft 453 kts 36°
2026-05-04 00:20 13.59099 114.16256 34974 ft 453 kts 36°
2026-05-04 00:20 13.64197 114.20078 34978 ft 454 kts 36°
2026-05-04 00:21 13.69298 114.23907 34980 ft 454 kts 36°
2026-05-04 00:21 13.74402 114.27741 34982 ft 454 kts 36°
2026-05-04 00:22 13.79470 114.31551 34983 ft 454 kts 36°
2026-05-04 00:22 13.84570 114.35392 34987 ft 454 kts 36°
2026-05-04 00:23 13.89678 114.39238 34995 ft 455 kts 36°
2026-05-04 00:23 13.94784 114.43084 34987 ft 455 kts 36°
2026-05-04 00:24 13.99516 114.47388 34992 ft 455 kts 46°
2026-05-04 00:24 14.03855 114.52126 34980 ft 455 kts 46°
2026-05-04 00:25 14.08217 114.56857 34981 ft 455 kts 46°
2026-05-04 00:25 14.12572 114.61596 34982 ft 455 kts 46°
2026-05-04 00:26 14.16922 114.66335 34979 ft 455 kts 46°
2026-05-04 00:26 14.21261 114.71088 34975 ft 455 kts 46°
2026-05-04 00:27 14.25609 114.75832 34974 ft 455 kts 46°
2026-05-04 00:27 14.29930 114.80536 34969 ft 455 kts 46°
2026-05-04 00:28 14.34283 114.85285 34971 ft 456 kts 46°
2026-05-04 00:28 14.38629 114.90048 34974 ft 456 kts 46°
2026-05-04 00:29 14.42977 114.94807 34971 ft 456 kts 46°
2026-05-04 00:29 14.47333 114.99567 34972 ft 456 kts 46°
2026-05-04 00:30 14.51683 115.04341 34975 ft 457 kts 46°
2026-05-04 00:30 14.56040 115.09118 34980 ft 457 kts 46°
2026-05-04 00:31 14.60396 115.13901 34983 ft 457 kts 46°
2026-05-04 00:31 14.64745 115.18680 34982 ft 457 kts 46°
2026-05-04 00:32 14.69099 115.23460 34984 ft 457 kts 46°
2026-05-04 00:32 14.73448 115.28241 34984 ft 457 kts 46°
2026-05-04 00:33 14.79976 115.35418 34984 ft 457 kts 46°
2026-05-04 00:34 14.84300 115.40171 34984 ft 457 kts 46°
2026-05-04 00:34 14.88651 115.44967 34995 ft 457 kts 46°
2026-05-04 00:35 14.93002 115.49761 34997 ft 457 kts 46°
2026-05-04 00:35 14.97352 115.54559 34994 ft 457 kts 46°
2026-05-04 00:36 15.01698 115.59365 34999 ft 457 kts 46°
2026-05-04 00:36 15.06050 115.64172 34993 ft 457 kts 46°
2026-05-04 00:37 15.10397 115.68973 34994 ft 457 kts 46°
2026-05-04 00:37 15.14743 115.73780 34999 ft 457 kts 46°
2026-05-04 00:38 15.19088 115.78593 34993 ft 457 kts 46°
2026-05-04 00:38 15.23441 115.83418 35277 ft 459 kts 46°
2026-05-04 00:38 15.25620 115.85834 35541 ft 459 kts 46°
2026-05-04 00:39 15.27770 115.88215 35811 ft 458 kts 46°
2026-05-04 00:39 15.29948 115.90625 36080 ft 458 kts 46°
2026-05-04 00:39 15.32122 115.93032 36335 ft 457 kts 46°
2026-05-04 00:39 15.34291 115.95437 36567 ft 457 kts 46°
2026-05-04 00:40 15.36460 115.97840 36784 ft 456 kts 46°
2026-05-04 00:40 15.38623 116.00244 36951 ft 456 kts 46°
2026-05-04 00:40 15.40785 116.02652 36983 ft 455 kts 46°
2026-05-04 00:41 15.45097 116.07436 36987 ft 453 kts 46°
2026-05-04 00:41 15.49390 116.12193 36989 ft 451 kts 46°
2026-05-04 00:42 15.53651 116.16947 36990 ft 449 kts 46°
2026-05-04 00:42 15.57894 116.21684 36991 ft 448 kts 46°
2026-05-04 00:43 15.62146 116.26405 36996 ft 448 kts 46°
2026-05-04 00:43 15.66392 116.31135 36998 ft 448 kts 46°
2026-05-04 00:44 15.70630 116.35875 37001 ft 448 kts 46°
2026-05-04 00:44 15.74156 116.39816 37003 ft 448 kts 46°
2026-05-04 00:45 15.79095 116.45327 37005 ft 448 kts 46°
2026-05-04 00:45 15.82657 116.49297 37006 ft 449 kts 46°
2026-05-04 00:46 15.87595 116.54807 37005 ft 448 kts 46°
2026-05-04 00:46 15.91150 116.58783 37004 ft 448 kts 46°
2026-05-04 00:47 15.95391 116.63538 37006 ft 449 kts 46°
2026-05-04 00:47 15.99631 116.68301 37006 ft 449 kts 46°
2026-05-04 00:48 16.03850 116.73027 37006 ft 449 kts 46°
2026-05-04 00:48 16.08101 116.77781 37005 ft 449 kts 46°
2026-05-04 00:49 16.12349 116.82553 37005 ft 450 kts 46°
2026-05-04 00:49 16.16594 116.87326 37006 ft 450 kts 46°
2026-05-04 00:50 16.20846 116.92102 37005 ft 450 kts 46°
2026-05-04 00:50 16.25095 116.96882 37004 ft 450 kts 46°
2026-05-04 00:51 16.29343 117.01674 37004 ft 450 kts 46°
2026-05-04 00:51 16.33580 117.06456 37002 ft 450 kts 46°
2026-05-04 00:52 16.37829 117.11243 37000 ft 450 kts 46°
2026-05-04 00:52 16.42083 117.16031 37001 ft 450 kts 46°
2026-05-04 00:53 16.46335 117.20826 37003 ft 451 kts 46°
2026-05-04 00:53 16.50587 117.25630 37004 ft 451 kts 46°
2026-05-04 00:54 16.54847 117.30441 37008 ft 452 kts 46°
2026-05-04 00:54 16.59104 117.35254 37008 ft 451 kts 46°
2026-05-04 00:55 16.63329 117.40031 37007 ft 451 kts 46°
2026-05-04 00:55 16.67578 117.44850 37007 ft 452 kts 46°
2026-05-04 00:56 16.71833 117.49679 37008 ft 452 kts 46°
2026-05-04 00:56 16.76091 117.54502 37008 ft 452 kts 46°
2026-05-04 00:57 16.80347 117.59331 37007 ft 452 kts 47°
2026-05-04 00:57 16.84598 117.64160 37001 ft 452 kts 46°
2026-05-04 00:58 16.88842 117.68994 37003 ft 451 kts 47°
2026-05-04 00:58 16.93087 117.73828 37001 ft 451 kts 47°
2026-05-04 00:59 16.97333 117.78658 37001 ft 451 kts 46°
2026-05-04 00:59 17.01576 117.83490 37002 ft 451 kts 47°
2026-05-04 01:00 17.05790 117.88295 37004 ft 452 kts 47°
2026-05-04 01:00 17.10025 117.93140 37006 ft 452 kts 47°
2026-05-04 01:01 17.14274 117.97987 37007 ft 452 kts 47°
2026-05-04 01:01 17.18519 118.02834 37009 ft 452 kts 47°
2026-05-04 01:02 17.22767 118.07683 37013 ft 452 kts 46°
2026-05-04 01:02 17.27019 118.12543 37016 ft 453 kts 47°
2026-05-04 01:03 17.31263 118.17411 37017 ft 453 kts 47°
2026-05-04 01:03 17.35511 118.22282 37013 ft 453 kts 47°
2026-05-04 01:04 17.39755 118.27152 37012 ft 453 kts 47°
2026-05-04 01:04 17.44001 118.32022 37012 ft 453 kts 47°
2026-05-04 01:05 17.48218 118.36863 37011 ft 452 kts 47°
2026-05-04 01:05 17.52459 118.41744 37010 ft 453 kts 47°
2026-05-04 01:06 17.56700 118.46622 37010 ft 453 kts 47°
2026-05-04 01:06 17.60939 118.51500 37007 ft 452 kts 47°
2026-05-04 01:07 17.65171 118.56372 37005 ft 452 kts 47°
2026-05-04 01:07 17.69402 118.61250 37006 ft 452 kts 47°
2026-05-04 01:08 17.73639 118.66126 37007 ft 452 kts 47°